Location: Ebersheim
(48.3033°N, 7.4991°E)
Time: 20:13:57
(UTC+00:00)

STARLINK-42 - Pass Details

Date: 27 February 2020
Orbit: 394 x 397 km, 53.0° (Epoch: 30 March)

Event Time Altitude Azimuth Distance (km) Brightness Sun altitude
Rises 17:55:00 0° 284° (WNW) 2,308 8.5 -8.2°
Reaches altitude 10° 17:57:11 10° 294° (WNW) 1,451 6.9 -8.6°
Maximum altitude 18:00:12 34° 1° (N) 687 4.1 -9.1°
Enters shadow 18:02:49 12° 66° (ENE) 1,314 5.0 -9.5°
